TimeCST,TemperatureF,Dew PointF,Humidity,Sea Level PressureIn,VisibilityMPH,Wind Direction,Wind SpeedMPH,Gust SpeedMPH,PrecipitationIn,Events,Conditions,WindDirDegrees,DateUTC
12:15 AM,51.8,8.6,18,30.24,10.0,NW,6.9,-,N/A,,Clear,310,2014-01-17 06:15:00
12:35 AM,51.8,8.6,18,30.24,10.0,NW,5.8,-,N/A,,Clear,310,2014-01-17 06:35:00
12:55 AM,50.0,8.6,19,30.24,10.0,NW,5.8,-,N/A,,Clear,310,2014-01-17 06:55:00
1:15 AM,51.8,6.8,16,30.24,10.0,NNW,10.4,18.4,N/A,,Clear,330,2014-01-17 07:15:00
1:35 AM,50.0,5.0,16,30.24,10.0,NW,9.2,-,N/A,,Clear,310,2014-01-17 07:35:00
1:55 AM,50.0,6.8,17,30.25,10.0,NW,5.8,-,N/A,,Clear,310,2014-01-17 07:55:00
2:15 AM,48.2,10.4,22,30.25,10.0,WNW,5.8,-,N/A,,Clear,300,2014-01-17 08:15:00
2:35 AM,50.0,8.6,19,30.26,7.0,WNW,4.6,-,N/A,,Clear,290,2014-01-17 08:35:00
2:55 AM,48.2,10.4,22,30.26,7.0,West,5.8,-,N/A,,Clear,280,2014-01-17 08:55:00
3:15 AM,48.2,10.4,22,30.27,7.0,WNW,4.6,-,N/A,,Clear,290,2014-01-17 09:15:00
3:35 AM,48.2,12.2,24,30.27,7.0,WNW,3.5,-,N/A,,Clear,300,2014-01-17 09:35:00
3:55 AM,48.2,10.4,22,30.27,7.0,WNW,4.6,-,N/A,,Clear,300,2014-01-17 09:55:00
4:15 AM,48.2,10.4,22,30.28,7.0,WNW,4.6,-,N/A,,Clear,300,2014-01-17 10:15:00
4:35 AM,48.2,12.2,24,30.28,7.0,NW,5.8,-,N/A,,Clear,310,2014-01-17 10:35:00
4:55 AM,48.2,12.2,24,30.29,7.0,NW,4.6,-,N/A,,Clear,320,2014-01-17 10:55:00
5:15 AM,46.4,14.0,27,30.29,7.0,NNW,4.6,-,N/A,,Clear,340,2014-01-17 11:15:00
5:35 AM,46.4,12.2,25,30.30,7.0,North,10.4,-,N/A,,Clear,360,2014-01-17 11:35:00
5:55 AM,46.4,14.0,27,30.31,10.0,NNE,15.0,24.2,N/A,,Clear,20,2014-01-17 11:55:00
7:50 AM,42.8,14.0,31,30.35,10.0,North,9.2,-,N/A,,Clear,350,2014-01-17 13:50:00
8:50 AM,44.6,12.2,27,30.37,10.0,NNW,12.7,18.4,N/A,,Clear,340,2014-01-17 14:50:00
9:50 AM,46.4,10.4,23,30.40,10.0,NNW,11.5,24.2,N/A,,Clear,340,2014-01-17 15:50:00
10:50 AM,48.2,10.4,22,30.40,10.0,NNW,9.2,-,N/A,,Clear,330,2014-01-17 16:50:00
11:50 AM,50.0,8.6,19,30.39,10.0,NW,6.9,16.1,N/A,,Clear,310,2014-01-17 17:50:00
12:50 PM,50.0,6.8,17,30.35,10.0,NNW,9.2,18.4,N/A,,Clear,340,2014-01-17 18:50:00
1:50 PM,50.0,6.8,17,30.31,10.0,NNW,9.2,-,N/A,,Clear,340,2014-01-17 19:50:00
2:50 PM,53.6,6.8,15,30.30,10.0,NNW,6.9,-,N/A,,Clear,340,2014-01-17 20:50:00
3:50 PM,53.6,8.6,16,30.29,10.0,NNW,4.6,-,N/A,,Clear,330,2014-01-17 21:50:00
4:50 PM,53.6,8.6,16,30.28,10.0,West,5.8,-,N/A,,Clear,280,2014-01-17 22:50:00
5:50 PM,53.6,8.6,16,30.29,10.0,West,9.2,-,N/A,,Clear,280,2014-01-17 23:50:00
8:15 PM,44.6,17.6,34,30.28,10.0,Calm,Calm,-,N/A,,Clear,0,2014-01-18 02:15:00
8:35 PM,44.6,17.6,34,30.28,10.0,SSW,3.5,-,N/A,,Clear,200,2014-01-18 02:35:00
8:55 PM,42.8,17.6,36,30.28,10.0,SW,4.6,-,N/A,,Clear,220,2014-01-18 02:55:00
9:15 PM,42.8,17.6,36,30.28,10.0,SW,3.5,-,N/A,,Clear,220,2014-01-18 03:15:00
9:35 PM,42.8,17.6,36,30.27,10.0,Calm,Calm,-,N/A,,Clear,0,2014-01-18 03:35:00
9:55 PM,41.0,17.6,39,30.26,10.0,South,4.6,-,N/A,,Clear,190,2014-01-18 03:55:00
10:15 PM,41.0,17.6,39,30.26,10.0,SSW,4.6,-,N/A,,Clear,210,2014-01-18 04:15:00
10:35 PM,41.0,15.8,36,30.26,10.0,SSW,5.8,-,N/A,,Clear,210,2014-01-18 04:35:00
10:55 PM,41.0,15.8,36,30.25,10.0,SSW,4.6,-,N/A,,Clear,210,2014-01-18 04:55:00
11:15 PM,41.0,15.8,36,30.24,10.0,SSW,5.8,-,N/A,,Clear,210,2014-01-18 05:15:00
11:35 PM,39.2,15.8,39,30.24,10.0,SSW,6.9,-,N/A,,Clear,210,2014-01-18 05:35:00
11:55 PM,41.0,15.8,36,30.23,10.0,SSW,8.1,-,N/A,,Clear,200,2014-01-18 05:55:00